Temperature
17 17 17 17 17 17 17 17 17 16 16 17 17 17 16 16 16 16 16 16 16 15 15 15 15 15 15 15 15 15 14 14 14 14 14 14 14 14
17 17 17 17 17 17 17 17 16 16 16 17 17 17 16 16 16 16 16 16 15 15 15 15 15 15 15 14 14 14 14 14 14 14 13 13 13 13
17 17 17 17 17 17 17 17 16 16 16 17 16 16 16 16 16 16 16 16 15 15 15 15 15 15 14 14 14 14 14 14 13 13 13 13 13 13
17 17 17 17 17 17 17 16 16 16 16 16 16 16 16 16 16 16 15 15 15 15 15 15 15 14 14 14 14 14 13 13 13 13 13 13 13 12
16 16 16 16 16 16 16 16 16 16 16 16 16 16 16 16 16 15 15 15 15 15 15 15 14 14 14 14 13 13 13 13 13 13 12 12 12 12
16 16 16 16 16 16 16 16 16 16 16 16 16 16 15 15 15 15 15 15 15 15 14 14 14 14 14 13 13 13 13 13 12 12 12 12 12 12
16 16 16 16 16 16 16 16 16 15 15 15 15 15 15 15 15 15 15 15 14 14 14 14 14 14 13 13 13 13 13 12 12 12 12 12 12 11
16 16 16 16 16 16 15 15 15 15 15 15 15 15 15 15 15 15 14 14 14 14 14 14 14 13 13 13 13 13 12 12 12 12 12 11 11 11
16 16 16 16 15 15 15 15 15 15 15 15 15 15 15 15 15 14 14 14 14 14 14 13 13 13 13 13 12 12 12 12 12 12 11 11 11 11
16 15 15 15 15 15 15 15 15 15 15 15 15 15 15 14 14 14 14 14 14 13 13 13 13 13 13 12 12 12 12 12 12 11 11 11 11 11
15 15 15 15 15 15 14 14 14 14 14 14 14 14 14 14 14 13 13 13 13 13 13 13 13 13 12 12 12 12 12 11 11 11 11 11 11 10
15 15 14 14 14 14 14 14 14 14 14 14 14 14 14 14 13 13 13 13 13 13 13 12 13 12 12 12 12 12 11 11 11 11 11 10 10 10
14 14 14 14 14 14 14 14 14 14 13 13 13 13 13 13 13 13 13 13 12 12 12 12 12 12 12 12 12 12 11 11 11 11 11 10 10 10
14 14 14 14 14 13 13 13 13 13 13 13 13 13 13 13 13 12 12 12 12 12 12 12 12 12 12 11 11 11 11 11 11 11 10 10 10 10
14 14 14 13 13 13 13 13 13 13 12 12 12 12 12 12 12 12 12 12 12 11 11 11 11 11 11 11 11 11 11 11 11 10 10 10 10 10
13 13 13 13 13 13 13 13 12 12 12 12 12 12 12 12 11 11 11 11 11 11 11 11 11 11 11 11 11 11 11 10 10 10 10 10 10 9
13 13 13 12 12 12 12 12 12 12 12 12 11 11 11 11 11 11 11 11 11 10 11 11 11 10 10 10 10 10 10 10 10 10 10 10 9 9
12 12 12 12 12 12 12 12 12 11 11 11 11 11 11 11 11 11 10 10 10 10 10 10 10 10 10 10 10 10 10 10 10 10 9 9 9 9
12 12 11 11 11 11 11 12 11 11 11 11 11 11 11 11 10 10 10 10 10 10 10 10 10 9 9 9 9 10 10 9 9 9 9 9 9 9
11 11 11 11 11 11 11 11 11 11 11 11 11 11 11 10 10 10 10 10 9 9 9 9 9 9 9 9 9 9 9 9 9 9 9 9 9 9
11 11 11 11 11 11 11 11 11 10 10 10 10 10 10 10 10 10 9 9 9 9 9 9 9 9 9 9 9 9 9 9 9 9 9 8 8 8
11 11 11 11 10 10 10 10 10 10 10 10 10 10 10 10 9 9 9 9 9 9 9 9 9 9 9 9 8 9 9 9 9 8 8 8 8 8
10 10 10 10 10 10 10 10 10 9 9 9 9 9 9 9 9 9 9 9 9 9 9 9 9 9 8 8 8 8 8 8 8 8 8 8 8 8
Wind_Speed
4 4 4 4 4 4 4 5 5 3 4 4 3 4 6 8 10 10 9 11 12 12 13 12 12 12 12 11 10 9 9 8 7 7 7 6 6 6
3 3 3 3 3 3 4 4 5 5 4 4 4 3 4 6 9 10 11 11 12 12 12 13 12 12 11 11 10 9 9 8 8 7 7 6 5 5
3 3 4 3 3 3 3 4 4 4 5 4 3 3 4 4 4 7 8 8 8 11 11 12 12 11 10 10 9 9 9 8 8 7 6 6 5 5
4 3 4 3 3 3 3 4 4 4 5 5 3 3 4 5 5 5 5 6 7 8 10 10 11 11 10 10 9 9 9 9 8 7 7 6 6 6
5 4 4 4 4 4 4 4 4 4 4 4 4 3 3 3 3 3 3 2 4 6 8 10 10 10 10 10 10 9 10 10 10 9 8 8 7 7
5 5 5 5 5 5 5 4 4 4 3 3 3 3 2 2 3 3 2 2 3 4 5 7 8 9 10 9 10 10 10 11 11 11 10 10 9 8
4 4 5 5 6 5 4 4 4 3 3 3 3 2 2 2 3 3 4 3 3 3 3 3 5 5 7 9 10 10 10 11 11 11 11 11 10 9
4 4 4 4 6 6 7 7 7 6 6 5 4 4 5 4 3 3 3 2 3 3 3 4 4 5 6 8 9 10 11 11 12 12 12 11 10 9
4 4 4 3 3 3 4 5 6 8 9 7 6 7 6 5 4 4 4 4 5 4 4 4 4 5 6 8 11 11 11 11 11 11 11 11 11 10
4 4 4 4 4 4 3 3 4 4 6 6 7 6 6 5 6 6 6 4 3 2 4 4 4 4 5 7 11 13 13 12 12 11 11 11 10 9
3 3 3 5 6 5 4 4 4 4 4 5 7 6 6 6 5 3 3 3 3 3 3 4 3 3 3 4 8 13 14 14 13 12 12 12 11 9
3 3 4 4 4 5 4 4 5 4 2 2 2 3 4 4 6 5 5 5 3 3 4 4 3 3 3 3 4 7 10 12 13 13 12 12 11 8
4 4 4 5 5 6 6 5 7 5 3 3 2 2 2 3 3 4 5 5 5 5 4 4 3 3 3 2 2 4 6 6 8 9 11 12 12 10
5 4 4 5 6 6 5 6 6 4 2 2 3 3 3 4 4 4 5 6 6 6 5 5 4 4 4 3 2 3 4 5 6 6 7 9 10 11
4 5 5 5 5 4 6 6 5 3 3 4 5 5 5 5 3 3 3 3 3 4 4 5 4 4 4 4 3 3 3 4 6 6 6 6 6 6
3 3 3 4 4 4 4 4 4 4 5 5 5 4 3 3 3 3 3 2 2 3 3 4 5 5 4 4 4 4 4 4 5 6 6 5 6 8
2 1 1 1 2 2 2 3 3 3 4 4 4 4 3 3 3 3 3 2 3 3 3 2 2 3 4 4 3 4 4 3 4 5 5 5 5 7
3 2 3 3 3 3 3 3 4 4 5 4 4 4 4 4 4 3 2 3 4 4 4 3 2 1 1 2 4 5 4 4 4 5 5 5 5 6
3 3 3 3 4 3 3 4 4 5 4 4 4 4 4 3 3 3 3 3 4 4 4 3 3 4 4 5 4 6 6 4 4 4 4 5 6 6
3 3 3 3 3 4 3 3 3 3 3 3 3 3 3 3 3 3 4 4 4 4 3 3 4 5 6 6 4 4 7 6 5 5 5 4 3 3
3 4 4 4 4 4 3 3 3 3 3 3 3 3 3 3 3 4 4 5 4 4 5 5 6 7 4 2 2 3 3 7 9 6 6 4 3 3
3 4 4 3 3 3 3 2 2 2 2 2 2 2 2 2 3 4 4 4 4 4 5 4 3 2 3 5 6 5 4 3 5 8 9 8 6 6
3 3 3 2 2 2 2 2 2 2 1 1 1 1 1 2 2 2 3 3 3 4 3 3 2 2 3 5 5 5 5 4 3 3 4 7 10 11
Wind_Direction
227 224 227 229 214 211 197 185 182 211 243 239 231 223 204 205 211 205 210 215 215 216 218 218 218 221 224 223 222 221 219 215 217 220 224 226 227 232
224 224 237 240 229 215 206 200 190 190 221 230 224 222 202 202 206 201 207 213 215 217 219 217 217 220 219 217 216 212 210 208 207 211 214 216 219 222
244 235 242 238 233 226 210 202 200 186 212 244 227 207 193 202 198 202 211 208 213 218 217 215 213 212 210 212 211 209 208 206 204 203 203 205 210 212
248 245 248 244 238 225 208 209 211 200 195 225 233 207 210 206 195 195 200 207 209 214 209 208 210 212 212 211 211 208 206 204 202 202 203 208 212 214
238 237 244 235 240 234 219 215 214 210 194 200 226 216 217 195 174 194 194 200 208 210 204 206 210 211 212 212 211 209 207 206 206 206 208 210 211 211
240 235 234 227 229 228 227 220 209 203 198 200 216 218 213 201 170 185 207 219 220 209 203 204 206 209 213 213 214 212 210 210 209 210 211 211 212 213
255 246 242 232 226 219 219 208 196 198 195 204 217 218 217 194 205 197 205 212 234 207 196 209 206 213 217 220 220 217 212 211 210 210 209 210 214 215
257 260 260 249 238 222 220 213 199 200 206 210 221 221 227 216 207 199 188 193 239 213 188 221 202 216 220 218 220 216 214 212 211 212 212 212 214 215
250 256 265 264 231 221 228 229 227 222 211 206 215 224 221 214 199 207 204 203 220 205 179 217 205 218 225 223 218 215 213 212 212 213 213 211 211 213
242 240 238 245 234 217 216 227 241 242 226 218 217 223 222 210 202 208 211 212 233 216 179 203 203 213 220 219 218 216 215 214 215 215 214 212 209 210
251 249 243 240 242 215 201 220 243 261 254 230 220 217 215 209 195 173 177 184 230 235 200 191 201 199 209 225 222 218 217 218 217 217 216 215 214 211
265 261 252 246 238 206 200 209 234 249 244 266 254 242 231 222 204 196 194 198 208 226 210 191 196 176 215 229 215 215 217 221 218 216 215 214 209 201
242 249 252 249 237 224 215 217 228 228 217 215 233 247 246 232 221 215 206 199 207 229 213 184 190 185 191 206 213 208 206 212 212 217 216 212 204 196
237 238 236 234 233 231 231 233 228 216 203 207 222 235 237 238 238 230 222 221 221 224 216 190 194 192 183 186 214 203 200 205 199 205 208 207 208 208
236 237 238 237 231 232 231 230 223 210 202 214 226 236 234 232 228 231 234 234 245 250 231 209 195 191 187 195 193 189 192 208 201 199 200 204 206 202
229 241 245 239 228 229 234 234 226 214 208 222 233 239 236 230 228 221 218 214 243 279 270 233 209 191 197 199 187 198 194 194 197 203 198 203 209 206
199 201 210 222 227 235 238 240 231 223 225 229 233 238 236 231 231 217 208 202 215 243 265 272 225 199 196 190 195 206 200 207 203 191 187 202 217 215
155 195 221 221 227 232 233 237 233 233 233 227 227 232 231 226 226 219 210 208 217 228 236 232 187 161 321 282 220 205 206 210 203 188 184 198 221 223
177 218 224 226 235 240 241 239 238 237 230 221 222 227 228 227 222 218 216 218 224 232 238 225 200 194 215 249 263 216 205 207 190 194 203 204 217 221
216 227 234 237 239 238 239 239 246 245 230 225 226 225 222 218 222 220 217 215 219 224 232 227 216 211 215 225 233 243 212 197 193 202 211 217 229 226
237 241 244 243 245 238 232 230 234 238 231 225 228 227 221 213 218 219 218 222 224 223 227 236 237 222 218 189 227 257 245 214 201 197 193 193 210 216
243 247 251 248 240 232 227 225 229 236 228 225 230 229 223 214 218 221 217 220 226 227 232 242 238 203 192 208 229 238 238 240 227 218 209 200 193 203
250 248 247 246 243 238 227 213 205 218 221 226 230 234 236 229 220 215 222 221 219 227 226 232 238 219 215 215 224 232 227 224 217 215 242 241 227 230
Height
1533 1534 1534 1534 1534 1535 1535 1535 1536 1535 1535 1535 1536 1537 1537 1538 1538 1538 1538 1538 1538 1538 1538 1538 1538 1538 1538 1539 1539 1539 1539 1539 1539 1539 1539 1539 1539 1539
1530 1530 1530 1530 1530 1531 1531 1531 1532 1532 1531 1532 1532 1533 1534 1535 1535 1535 1535 1535 1535 1535 1535 1535 1535 1535 1536 1536 1536 1536 1536 1536 1536 1536 1536 1536 1536 1536
1526 1526 1526 1526 1526 1527 1527 1527 1528 1529 1528 1528 1529 1530 1531 1531 1532 1532 1532 1532 1532 1532 1532 1532 1532 1533 1533 1533 1533 1533 1533 1532 1532 1532 1532 1532 1533 1533
1522 1523 1522 1523 1522 1523 1523 1523 1524 1525 1525 1525 1525 1526 1527 1528 1529 1529 1529 1529 1529 1529 1529 1529 1529 1529 1529 1529 1529 1529 1529 1529 1529 1529 1529 1529 1529 1529
1519 1519 1519 1519 1518 1519 1519 1519 1520 1521 1521 1521 1521 1522 1523 1524 1525 1525 1526 1526 1526 1526 1525 1525 1526 1526 1526 1526 1526 1525 1525 1525 1525 1525 1525 1525 1526 1526
1515 1515 1515 1515 1515 1515 1515 1515 1516 1516 1517 1517 1517 1518 1519 1520 1521 1521 1521 1522 1522 1522 1522 1522 1522 1522 1522 1522 1522 1522 1522 1522 1522 1521 1522 1522 1522 1523
1511 1511 1511 1511 1511 1511 1511 1511 1512 1512 1513 1513 1513 1514 1514 1515 1516 1516 1517 1518 1518 1518 1518 1518 1518 1518 1518 1518 1518 1518 1518 1518 1518 1518 1518 1518 1519 1519
1506 1506 1506 1507 1507 1507 1507 1508 1508 1509 1509 1509 1509 1509 1509 1510 1511 1512 1513 1513 1514 1514 1514 1514 1514 1514 1514 1514 1514 1514 1514 1514 1514 1514 1514 1515 1515 1516
1502 1502 1502 1502 1503 1502 1503 1503 1504 1504 1505 1505 1505 1504 1505 1506 1507 1508 1508 1509 1509 1510 1510 1509 1510 1510 1510 1510 1510 1510 1510 1510 1510 1511 1511 1511 1512 1512
1498 1498 1498 1498 1498 1498 1498 1498 1499 1499 1499 1500 1500 1500 1501 1502 1503 1504 1504 1505 1505 1506 1506 1505 1505 1505 1506 1506 1506 1507 1507 1507 1507 1507 1508 1508 1508 1509
1494 1494 1494 1494 1494 1494 1494 1493 1493 1494 1494 1494 1495 1495 1496 1497 1498 1499 1499 1499 1499 1499 1500 1500 1500 1500 1501 1501 1502 1503 1503 1503 1503 1504 1504 1505 1505 1506
1489 1489 1489 1489 1489 1489 1489 1489 1488 1489 1489 1490 1490 1490 1491 1492 1493 1494 1494 1494 1494 1494 1495 1495 1495 1496 1496 1497 1498 1498 1499 1499 1500 1500 1501 1501 1502 1502
1484 1484 1485 1485 1485 1485 1485 1485 1484 1485 1484 1485 1485 1485 1486 1487 1487 1488 1489 1489 1489 1489 1490 1491 1490 1491 1492 1492 1492 1494 1494 1495 1496 1496 1497 1498 1498 1499
1480 1480 1480 1480 1480 1480 1480 1480 1480 1480 1480 1480 1480 1480 1481 1481 1482 1483 1483 1484 1484 1485 1485 1486 1486 1486 1487 1487 1488 1489 1490 1491 1491 1492 1493 1494 1494 1495
1476 1476 1475 1475 1475 1475 1475 1476 1476 1475 1475 1475 1475 1475 1476 1477 1478 1478 1478 1479 1479 1479 1480 1481 1481 1481 1482 1482 1483 1484 1485 1486 1487 1487 1488 1489 1490 1490
1472 1471 1471 1471 1471 1471 1471 1471 1471 1471 1470 1471 1471 1471 1472 1472 1472 1472 1473 1473 1473 1473 1474 1475 1476 1477 1477 1478 1478 1479 1480 1481 1482 1483 1484 1484 1485 1486
1467 1467 1466 1466 1466 1465 1465 1466 1466 1466 1466 1466 1466 1467 1467 1467 1467 1468 1468 1468 1468 1468 1469 1470 1471 1472 1472 1473 1473 1474 1475 1476 1477 1478 1479 1479 1480 1481
1463 1462 1461 1461 1461 1460 1460 1460 1461 1461 1461 1461 1462 1462 1462 1462 1462 1463 1463 1463 1463 1464 1465 1465 1466 1467 1468 1468 1469 1469 1470 1471 1472 1473 1474 1474 1475 1476
1458 1457 1457 1457 1456 1456 1456 1456 1456 1456 1457 1457 1457 1457 1458 1458 1458 1458 1458 1458 1459 1460 1461 1462 1462 1463 1463 1462 1463 1465 1466 1466 1467 1468 1469 1470 1470 1471
1454 1454 1453 1453 1453 1453 1452 1452 1452 1452 1452 1452 1452 1452 1453 1453 1453 1453 1453 1454 1454 1455 1456 1457 1458 1458 1458 1459 1459 1460 1461 1462 1462 1463 1464 1465 1466 1467
1452 1451 1450 1450 1450 1450 1449 1449 1448 1448 1447 1447 1447 1447 1448 1448 1448 1448 1449 1449 1450 1450 1451 1452 1452 1454 1454 1455 1455 1455 1456 1457 1458 1458 1459 1460 1461 1462
1449 1449 1448 1447 1447 1447 1446 1445 1444 1444 1443 1443 1443 1443 1444 1444 1443 1443 1444 1445 1445 1445 1446 1447 1448 1449 1450 1450 1450 1450 1451 1452 1453 1454 1455 1455 1455 1456
1447 1446 1445 1445 1444 1444 1443 1442 1441 1440 1440 1440 1440 1440 1440 1440 1440 1440 1440 1440 1440 1441 1442 1442 1443 1444 1445 1445 1446 1446 1447 1447 1448 1449 1449 1450 1452 1453